"Cruise OISO-07 (R/V Marion-Dufresne, IPEV), Surface pCO2 data revised",,,,,,,,,,,,
"Last updated, Nicolas Metzl (LOCEAN/IPSL CNRS), 16/5/15",,,,,,,,,,,,
Revision of file OISO-07-CO2WAT-V2,,,,,,,,,,,,
"Based on TALK, DIC surface data, pCO2 data deleted after 8/9/01, 7:52 (origin of the shift unknown)",,,,,,,,,,,,
,,,,,,,,,,,,
DATE/Hour: Date and time,,,,,,,,,,,,
LAT: latitude (deg.deg),,,,,,,,,,,,
LONG: Longitude (deg.deg),,,,,,,,,,,,
PATM: atmospheric pressure,,,,,,,,,,,,
FCO2(1013): sea surface water fCO2 in wet air at 1013 hp,,,,,,,,,,,,
FCO2(Patm): sea surface water fCO2 in wet air at atmospheric pressure,,,,,,,,,,,,
Fluo: Florescence (in rel. Unit),,,,,,,,,,,,
TEQ: Equilibrator temperature,,,,,,,,,,,,
SST: sea surface temperature,,,,,,,,,,,,
SSS: sea surface salinity,,,,,,,,,,,,
VIT: ship speed,,,,,,,,,,,,
CAP: ship head,,,,,,,,,,,,
,,,,,,,,,,,,
EXPOCODE,DATE/Hour,LAT,LONG,PATM,FCO2(1013),FCO2(PATM),FLUO,TEQ,SST,SSS,VIT,CAP
,dd/mm/yy hh:mn,"deg,deg","deg,deg",hp,uatm,uatm,rel unit,�C,�C,-,kts,deg.deg
35MF20010901,1/9/01 8:12,37.50,-10.26,1014.70,376.90,377.50,0.10,21.775,21.216,36.003,6.5,247.0
35MF20010901,1/9/01 8:17,37.50,-10.25,1014.70,377.60,378.30,0.00,21.774,21.220,36.015,4.3,97.7
35MF20010901,1/9/01 8:22,37.50,-10.24,1014.50,377.60,378.20,0.00,21.783,21.226,36.015,5.1,82.2
35MF20010901,1/9/01 8:27,37.50,-10.23,1014.60,377.20,377.80,0.10,21.777,21.206,36.024,5.3,86.1
35MF20010901,1/9/01 8:32,37.50,-10.22,1014.50,376.80,377.30,0.20,21.750,21.175,36.027,5.4,90.0
35MF20010901,1/9/01 8:37,37.50,-10.22,1014.60,376.10,376.70,0.20,21.720,21.187,36.015,5.3,92.0
35MF20010901,1/9/01 8:42,37.50,-10.20,1014.60,376.50,377.10,0.20,21.728,21.240,36.008,12.6,90.0
35MF20010901,1/9/01 8:48,37.50,-10.18,1014.60,376.30,376.90,0.20,21.767,21.229,36.010,12.1,93.3
35MF20010901,1/9/01 8:53,37.50,-10.15,1014.60,378.40,379.00,0.20,21.754,21.226,36.037,12.1,90.1
35MF20010901,1/9/01 8:58,37.50,-10.14,1014.60,378.50,379.10,0.10,21.799,21.264,36.022,4.4,37.1
35MF20010901,1/9/01 9:03,37.51,-10.14,1014.60,378.30,378.90,0.20,21.803,21.307,36.041,11.3,349.0
35MF20010901,1/9/01 9:08,37.53,-10.14,1014.70,378.60,379.20,0.00,21.834,21.348,36.029,12.6,1.3
35MF20010901,1/9/01 9:22,37.58,-10.14,1014.70,379.60,380.20,-0.40,21.890,21.377,36.035,12.7,1.6
35MF20010901,1/9/01 9:27,37.60,-10.14,1014.70,380.10,380.80,-0.50,21.903,21.378,36.040,12.7,360.0
35MF20010901,1/9/01 9:32,37.61,-10.14,1014.80,380.70,381.40,-0.70,21.903,21.371,36.051,12.7,359.8
35MF20010901,1/9/01 9:38,37.63,-10.14,1014.60,380.60,381.20,-0.50,21.904,21.390,36.067,12.7,358.5
35MF20010901,1/9/01 9:43,37.65,-10.14,1014.60,380.40,381.00,-0.70,21.911,21.396,36.089,12.6,359.0
35MF20010901,1/9/01 9:48,37.67,-10.14,1014.50,379.80,380.40,-0.80,21.934,21.430,36.067,12.5,359.3
35MF20010901,1/9/01 9:53,37.69,-10.14,1014.60,378.50,379.10,-0.60,21.951,21.420,36.080,12.6,360.0
35MF20010901,1/9/01 9:58,37.70,-10.14,1014.40,376.70,377.20,-0.90,21.931,21.345,36.128,12.7,0.2
35MF20010901,1/9/01 10:03,37.72,-10.14,1014.60,374.80,375.40,-0.70,21.841,21.200,36.189,12.1,1.7
35MF20010901,1/9/01 10:08,37.74,-10.14,1014.50,374.70,375.20,-0.50,21.727,21.175,36.225,12.8,1.2
35MF20010901,1/9/01 10:14,37.76,-10.14,1014.50,375.00,375.50,-1.10,21.723,21.247,36.159,12.4,358.8
35MF20010901,1/9/01 10:19,37.78,-10.14,1014.50,374.10,374.70,-0.70,21.784,21.264,36.166,12.5,359.0
35MF20010901,1/9/01 10:33,37.82,-10.14,1014.50,372.90,373.40,-0.90,21.923,21.440,36.097,11.9,359.0
35MF20010901,1/9/01 10:38,37.84,-10.14,1014.60,371.50,372.00,-0.80,21.927,21.268,36.060,12.2,0.0
35MF20010901,1/9/01 10:43,37.86,-10.14,1014.50,368.30,368.90,-0.40,21.728,20.904,35.972,12.2,0.9
35MF20010901,1/9/01 10:48,37.88,-10.14,1014.50,362.20,362.70,0.40,21.332,20.334,35.877,12.7,359.0
35MF20010901,1/9/01 10:53,37.89,-10.14,1014.20,362.30,362.80,0.70,20.855,20.228,35.772,12.4,66.1
35MF20010901,1/9/01 10:58,37.89,-10.13,1014.60,359.20,359.80,0.80,20.871,20.344,35.615,6.5,260.8
35MF20010901,1/9/01 11:04,37.89,-10.14,1014.50,360.60,361.20,0.60,20.937,20.519,35.619,6.5,242.8
35MF20010901,1/9/01 11:09,37.88,-10.14,1014.50,362.80,363.30,0.20,21.174,20.862,35.611,8.1,189.9
35MF20010901,1/9/01 11:14,37.87,-10.15,1014.30,364.20,364.60,0.00,21.450,20.996,35.634,4.8,191.8
35MF20010901,1/9/01 11:19,37.86,-10.15,1014.40,366.60,367.10,-0.40,21.562,21.050,35.733,4.5,197.9
35MF20010901,1/9/01 11:24,37.85,-10.15,1014.20,369.90,370.30,-0.50,21.615,21.133,35.765,4.7,192.0
35MF20010901,1/9/01 11:29,37.85,-10.15,1014.30,371.40,371.90,-0.70,21.694,21.247,35.770,4.6,198.3
35MF20010901,1/9/01 11:43,37.83,-10.16,1014.40,372.50,373.00,-0.90,21.979,21.470,35.900,4.7,196.8
35MF20010901,1/9/01 11:48,37.82,-10.16,1014.10,373.90,374.30,-0.70,22.019,21.477,35.961,4.7,193.4
35MF20010901,1/9/01 11:53,37.82,-10.16,1014.00,374.60,375.00,-0.80,22.026,21.480,35.999,4.7,196.1
35MF20010901,1/9/01 11:59,37.81,-10.16,1013.90,373.20,373.60,-1.10,22.028,21.357,36.051,4.8,197.3
35MF20010901,1/9/01 12:04,37.80,-10.17,1013.90,373.10,373.40,-0.90,21.881,21.170,36.128,4.7,195.4
35MF20010901,1/9/01 12:09,37.80,-10.17,1014.10,374.30,374.70,-0.80,21.742,21.180,36.181,4.7,167.7
35MF20010901,1/9/01 12:14,37.79,-10.16,1013.80,373.40,373.70,-0.80,21.777,21.216,36.102,2.9,83.7
35MF20010901,1/9/01 12:19,37.79,-10.16,1013.80,374.00,374.30,-1.00,21.796,21.245,36.132,3.5,192.5
35MF20010901,1/9/01 12:24,37.79,-10.16,1013.80,374.70,375.00,-1.00,21.808,21.168,36.143,6.0,339.8
35MF20010901,1/9/01 12:29,37.80,-10.17,1013.80,376.10,376.40,-0.80,21.749,21.158,36.152,1.5,29.4
35MF20010901,1/9/01 12:35,37.80,-10.16,1013.80,376.00,376.30,-0.80,21.729,21.151,36.119,1.1,89.5
35MF20010901,1/9/01 12:40,37.80,-10.16,1013.80,376.10,376.40,-1.00,21.740,21.164,36.105,1.2,125.8
35MF20010901,1/9/01 12:54,37.80,-10.17,1013.70,384.40,384.70,-1.00,21.745,21.164,36.117,0.3,193.8
35MF20010901,1/9/01 12:59,37.80,-10.17,1013.60,386.60,386.80,-0.70,21.741,21.172,36.118,0.5,183.6
35MF20010901,1/9/01 13:04,37.80,-10.17,1013.60,386.60,386.80,-0.90,21.750,21.182,36.113,0.6,182.4
35MF20010901,1/9/01 13:09,37.80,-10.17,1013.60,388.70,389.00,-0.80,21.754,21.178,36.114,0.9,229.7
35MF20010901,1/9/01 13:14,37.80,-10.17,1013.40,390.60,390.80,-0.90,21.750,21.216,36.116,6.1,35.0
35MF20010901,1/9/01 13:19,37.81,-10.16,1013.60,393.40,393.70,-0.90,21.858,21.485,36.104,5.2,12.0
35MF20010901,1/9/01 13:24,37.81,-10.16,1013.50,393.40,393.60,-1.00,22.055,21.469,36.044,1.1,302.0
35MF20010901,1/9/01 13:30,37.81,-10.16,1013.40,395.60,395.80,-0.90,22.081,21.496,36.093,0.7,273.7
35MF20010901,1/9/01 13:35,37.81,-10.16,1013.30,395.30,395.40,-1.10,22.092,21.498,36.087,1.0,161.6
35MF20010901,1/9/01 13:40,37.81,-10.16,1013.30,395.00,395.10,-1.00,22.106,21.506,36.086,0.6,196.8
35MF20010901,1/9/01 13:45,37.81,-10.16,1013.30,396.80,396.90,-0.90,22.097,21.494,36.107,0.7,165.5
35MF20010901,1/9/01 13:50,37.81,-10.16,1013.20,398.30,398.40,-1.00,22.077,21.489,36.118,0.9,163.3
35MF20010901,1/9/01 14:04,37.81,-10.16,1013.20,396.70,396.80,-1.10,21.966,21.441,36.140,0.8,176.3
35MF20010901,1/9/01 14:09,37.81,-10.16,1013.20,396.00,396.10,-1.00,21.952,21.446,36.172,0.7,308.4
35MF20010901,1/9/01 14:14,37.81,-10.16,1013.30,393.90,394.00,-0.70,21.981,21.428,36.134,1.0,157.5
35MF20010901,1/9/01 14:19,37.81,-10.16,1013.10,394.10,394.20,-0.80,21.865,21.373,36.176,0.3,251.5
35MF20010901,1/9/01 14:24,37.81,-10.17,1013.20,392.50,392.60,-0.70,21.886,21.404,36.136,0.7,338.1
35MF20010901,1/9/01 14:29,37.81,-10.17,1013.10,392.90,392.90,-0.70,21.968,21.430,36.131,0.7,308.9
35MF20010901,1/9/01 14:35,37.81,-10.17,1013.10,393.20,393.20,-0.90,21.996,21.446,36.136,0.6,293.8
35MF20010901,1/9/01 14:40,37.81,-10.17,1013.00,390.80,390.80,-0.60,22.021,21.443,36.134,0.5,172.0
35MF20010901,1/9/01 14:45,37.81,-10.17,1012.90,390.60,390.50,-0.80,21.960,21.433,36.154,0.6,155.9
35MF20010901,1/9/01 14:50,37.81,-10.17,1012.90,391.40,391.40,-0.80,21.853,21.405,36.184,0.1,208.2
35MF20010901,1/9/01 14:55,37.81,-10.17,1012.90,389.90,389.90,-0.70,21.829,21.389,36.136,0.4,310.0
35MF20010901,1/9/01 15:00,37.81,-10.17,1012.90,389.20,389.20,-0.50,21.830,21.379,36.129,0.4,313.5
35MF20010901,1/9/01 15:14,37.81,-10.17,1012.80,386.90,386.80,-0.80,21.945,21.391,36.136,0.4,288.9
35MF20010901,1/9/01 15:19,37.81,-10.17,1012.70,387.30,387.20,-0.70,21.933,21.382,36.138,0.6,165.4
35MF20010901,1/9/01 15:25,37.81,-10.17,1012.60,388.40,388.20,-0.70,21.855,21.360,36.152,0.9,153.9
35MF20010901,1/9/01 15:30,37.81,-10.17,1012.60,388.40,388.20,-0.90,21.822,21.336,36.131,0.2,302.6
35MF20010901,1/9/01 15:35,37.81,-10.17,1012.60,387.80,387.60,-0.70,21.808,21.312,36.119,1.0,335.6
35MF20010901,1/9/01 15:40,37.81,-10.17,1012.60,387.30,387.10,-0.70,21.810,21.303,36.113,0.2,171.3
35MF20010901,1/9/01 15:45,37.81,-10.17,1012.50,386.90,386.70,-0.50,21.809,21.288,36.116,0.5,143.1
35MF20010901,1/9/01 15:50,37.81,-10.17,1012.60,387.50,387.30,-0.40,21.822,21.276,36.113,0.7,343.7
35MF20010901,1/9/01 15:56,37.81,-10.17,1012.50,389.40,389.20,-0.60,21.807,21.278,36.123,0.1,338.5
35MF20010901,1/9/01 16:01,37.81,-10.17,1012.50,390.60,390.40,-0.50,21.799,21.267,36.108,0.5,131.4
35MF20010901,1/9/01 16:06,37.81,-10.17,1012.50,389.50,389.30,-0.30,21.801,21.268,36.108,0.2,344.9
35MF20010901,1/9/01 16:11,37.81,-10.17,1012.40,388.00,387.70,-0.40,21.813,21.266,36.106,0.8,354.2
35MF20010901,1/9/01 16:51,37.85,-10.16,1012.10,380.00,379.70,0.20,22.010,21.254,36.017,12.0,2.7
35MF20010901,1/9/01 16:56,37.86,-10.16,1012.20,374.20,374.00,0.30,21.761,20.745,35.942,11.6,355.9
35MF20010901,1/9/01 17:01,37.88,-10.17,1012.10,361.00,360.70,1.60,21.095,19.501,35.835,12.2,355.7
35MF20010901,1/9/01 17:07,37.89,-10.17,1012.20,362.50,362.20,15.20,20.194,19.404,35.840,6.1,0.1
35MF20010901,1/9/01 17:12,37.90,-10.17,1012.20,351.20,350.90,14.30,20.120,19.539,35.708,6.6,358.5
35MF20010901,1/9/01 17:17,37.91,-10.17,1012.20,349.00,348.70,13.10,20.266,19.742,35.700,6.0,1.0
35MF20010901,1/9/01 17:22,37.92,-10.17,1012.00,348.90,348.60,9.80,20.408,19.760,35.704,5.4,344.0
35MF20010901,1/9/01 17:27,37.92,-10.17,1012.10,348.20,347.90,12.70,20.402,19.626,35.751,6.5,230.6
35MF20010901,1/9/01 17:32,37.91,-10.18,1012.20,346.90,346.60,14.70,20.250,19.439,35.775,6.9,232.8
35MF20010901,1/9/01 17:37,37.90,-10.19,1012.30,342.80,342.60,14.10,20.077,19.186,35.766,6.2,167.9
35MF20010901,1/9/01 17:42,37.90,-10.18,1012.40,348.20,348.00,10.70,19.869,19.497,35.754,6.8,169.7
35MF20010901,1/9/01 17:47,37.89,-10.18,1012.30,352.00,351.80,5.20,20.193,20.053,35.730,6.8,169.1
35MF20010901,1/9/01 18:02,37.86,-10.18,1012.50,370.30,370.10,2.10,21.643,21.241,35.697,6.4,165.3
35MF20010901,1/9/01 18:07,37.85,-10.17,1012.40,373.60,373.40,1.50,21.838,21.430,35.771,6.4,164.3
35MF20010901,1/9/01 18:12,37.84,-10.17,1012.40,375.40,375.20,1.10,21.993,21.483,35.862,6.3,162.9
35MF20010901,1/9/01 18:17,37.83,-10.17,1012.30,378.40,378.20,0.60,22.051,21.526,35.947,6.0,164.3
35MF20010901,1/9/01 18:22,37.83,-10.17,1012.40,379.80,379.60,0.30,22.085,21.503,35.986,5.8,184.6
35MF20010901,1/9/01 18:27,37.82,-10.17,1012.20,377.70,377.40,0.30,22.036,21.254,36.057,5.9,183.0
35MF20010901,1/9/01 18:33,37.81,-10.17,1012.30,379.40,379.10,0.50,21.849,21.288,36.183,5.3,178.6
35MF20010901,1/9/01 18:38,37.80,-10.17,1012.30,377.80,377.50,0.30,21.886,21.320,36.117,3.7,173.2
35MF20010901,1/9/01 18:43,37.80,-10.17,1012.00,377.10,376.70,0.30,21.916,21.311,36.147,0.8,209.7
35MF20010901,1/9/01 18:48,37.80,-10.17,1012.00,376.90,376.50,0.20,21.917,21.306,36.164,2.1,309.2
35MF20010901,1/9/01 18:53,37.80,-10.17,1012.00,376.40,376.00,0.30,21.897,21.281,36.166,6.1,58.7
35MF20010901,1/9/01 18:58,37.81,-10.16,1012.00,376.60,376.20,0.20,21.882,21.277,36.147,1.5,18.7
35MF20010901,1/9/01 19:12,37.81,-10.16,1012.20,374.60,374.30,0.30,21.863,21.264,36.133,0.7,141.8
35MF20010901,1/9/01 19:17,37.81,-10.16,1012.10,374.80,374.50,0.20,21.867,21.268,36.132,0.9,317.0
35MF20010901,1/9/01 19:22,37.81,-10.16,1012.10,375.80,375.40,0.30,21.864,21.267,36.133,0.4,188.6
35MF20010901,1/9/01 19:28,37.81,-10.16,1012.30,376.50,376.20,0.20,21.867,21.267,36.134,0.5,171.4
35MF20010901,1/9/01 19:33,37.81,-10.16,1012.20,376.20,375.90,0.30,21.874,21.272,36.131,0.4,325.1
35MF20010901,1/9/01 19:38,37.81,-10.16,1012.30,376.00,375.70,0.20,21.872,21.268,36.139,0.6,149.3
35MF20010901,1/9/01 19:43,37.81,-10.16,1012.20,375.70,375.40,0.40,21.875,21.276,36.139,0.5,203.9
35MF20010901,1/9/01 19:48,37.81,-10.16,1012.20,375.50,375.20,0.20,21.874,21.277,36.144,0.4,286.4
35MF20010901,1/9/01 19:53,37.81,-10.16,1012.30,375.50,375.20,0.30,21.876,21.275,36.143,0.2,177.9
35MF20010901,1/9/01 19:58,37.81,-10.16,1012.30,375.50,375.20,0.40,21.876,21.280,36.142,0.2,207.5
35MF20010901,1/9/01 20:03,37.81,-10.16,1012.20,375.60,375.30,0.20,21.878,21.280,36.142,0.7,168.4
35MF20010901,1/9/01 20:09,37.80,-10.17,1012.40,375.20,375.00,0.20,21.890,21.277,36.135,0.7,263.1
35MF20010901,1/9/01 20:22,37.80,-10.17,1012.40,375.00,374.70,0.20,21.881,21.282,36.137,0.7,167.3
35MF20010901,1/9/01 20:28,37.80,-10.16,1012.50,375.00,374.80,0.10,21.890,21.284,36.150,0.6,143.3
35MF20010901,1/9/01 20:33,37.80,-10.16,1012.40,375.20,375.00,0.20,21.888,21.297,36.161,0.8,150.9
35MF20010901,1/9/01 20:38,37.80,-10.16,1012.50,375.10,375.00,0.20,21.896,21.303,36.162,0.7,187.2
35MF20010901,1/9/01 20:43,37.80,-10.16,1012.40,375.30,375.10,0.20,21.905,21.308,36.170,0.9,310.4
35MF20010901,1/9/01 20:48,37.80,-10.17,1012.50,375.40,375.30,0.40,21.903,21.308,36.181,0.3,189.0
35MF20010901,1/9/01 20:53,37.80,-10.17,1012.50,375.50,375.30,0.20,21.911,21.307,36.174,0.8,281.0
35MF20010901,1/9/01 20:58,37.80,-10.17,1012.60,375.70,375.60,0.30,21.907,21.308,36.181,0.5,171.9
35MF20010901,1/9/01 21:04,37.80,-10.17,1012.60,376.40,376.20,0.30,21.908,21.308,36.183,0.6,173.8
35MF20010901,1/9/01 21:09,37.80,-10.17,1012.60,376.90,376.70,0.20,21.910,21.313,36.180,0.5,178.6
35MF20010901,1/9/01 21:14,37.80,-10.17,1012.60,376.90,376.70,0.40,21.908,21.317,36.183,0.7,173.0
35MF20010901,1/9/01 21:19,37.80,-10.16,1012.60,377.20,377.00,0.40,21.909,21.318,36.189,0.7,167.4
35MF20010901,2/9/01 6:59,37.79,-10.44,1011.40,379.90,379.30,1.00,21.787,21.271,36.053,10.7,69.4
35MF20010901,2/9/01 7:04,37.79,-10.42,1011.30,383.30,382.70,1.00,21.827,21.309,36.055,10.5,67.7
35MF20010901,2/9/01 7:09,37.80,-10.40,1011.30,385.00,384.40,1.00,21.852,21.338,36.045,10.7,66.6
35MF20010901,2/9/01 7:14,37.80,-10.39,1011.40,385.70,385.10,1.30,21.901,21.347,36.015,6.7,66.2
35MF20010901,2/9/01 7:19,37.81,-10.38,1011.40,386.70,386.10,0.90,21.908,21.347,36.018,5.5,66.6
35MF20010901,2/9/01 7:24,37.81,-10.37,1011.50,387.80,387.20,1.00,21.908,21.347,36.016,6.8,70.0
35MF20010901,2/9/01 7:29,37.81,-10.36,1011.40,388.50,387.90,1.30,21.906,21.347,36.009,7.3,73.3
35MF20010901,2/9/01 7:34,37.82,-10.35,1011.50,388.60,388.00,1.30,21.906,21.347,36.014,7.1,63.0
35MF20010901,2/9/01 7:39,37.82,-10.33,1011.40,388.70,388.10,1.40,21.909,21.347,36.011,7.1,62.5
35MF20010901,2/9/01 7:45,37.83,-10.32,1011.30,389.00,388.30,1.60,21.912,21.347,36.004,7.3,62.5
35MF20010901,2/9/01 7:50,37.83,-10.31,1011.30,389.00,388.40,1.70,21.913,21.347,35.988,7.3,62.7
35MF20010901,2/9/01 7:55,37.84,-10.30,1011.50,389.00,388.40,1.50,21.913,21.340,35.980,7.4,62.9
35MF20010901,2/9/01 8:09,37.85,-10.27,1011.50,387.70,387.20,2.20,21.889,21.305,35.956,7.6,64.8
35MF20010901,2/9/01 8:14,37.85,-10.25,1011.50,387.90,387.30,2.00,21.870,21.284,35.949,7.7,64.5
35MF20010901,2/9/01 8:19,37.86,-10.24,1011.60,387.90,387.40,2.50,21.857,21.264,35.928,6.6,65.9
35MF20010901,2/9/01 8:24,37.86,-10.23,1011.50,387.50,386.90,2.50,21.841,21.249,35.908,6.3,65.1
35MF20010901,2/9/01 8:29,37.87,-10.22,1011.70,386.80,386.30,2.60,21.828,21.230,35.900,6.3,64.0
35MF20010901,2/9/01 8:35,37.87,-10.21,1011.40,386.90,386.30,2.30,21.811,21.215,35.888,6.2,63.1
35MF20010901,2/9/01 8:40,37.87,-10.20,1011.50,386.80,386.20,2.40,21.788,21.192,35.880,6.3,61.8
35MF20010901,2/9/01 8:45,37.88,-10.19,1011.40,386.20,385.60,3.30,21.765,21.144,35.871,6.5,64.7
35MF20010901,2/9/01 8:50,37.88,-10.18,1011.50,386.20,385.70,3.00,21.711,21.084,35.866,6.5,64.3
35MF20010901,2/9/01 8:55,37.89,-10.17,1011.60,385.10,384.50,3.10,21.663,20.982,35.838,6.4,63.8
35MF20010901,2/9/01 9:00,37.89,-10.16,1011.60,383.60,383.00,3.50,21.551,20.789,35.826,6.5,62.0
35MF20010901,2/9/01 9:05,37.89,-10.16,1011.60,386.00,385.40,4.20,21.393,20.826,35.786,2.4,230.6
35MF20010901,2/9/01 9:19,37.89,-10.17,1011.70,381.20,380.70,3.90,21.541,20.886,35.735,1.9,333.3
35MF20010901,2/9/01 9:25,37.89,-10.17,1011.60,377.90,377.40,4.20,21.457,20.588,35.770,5.1,4.5
35MF20010901,2/9/01 9:30,37.90,-10.17,1011.60,373.50,373.00,4.60,21.173,20.196,35.768,5.7,0.2
35MF20010901,2/9/01 9:35,37.91,-10.17,1011.70,366.60,366.10,5.10,20.892,19.634,35.692,5.7,0.2
35MF20010901,2/9/01 9:40,37.91,-10.17,1011.70,368.70,368.20,12.10,20.330,19.508,35.773,5.7,357.5
35MF20010901,2/9/01 9:45,37.92,-10.17,1011.80,362.60,362.10,13.50,20.207,19.547,35.726,5.7,358.7
35MF20010901,2/9/01 9:50,37.93,-10.17,1011.70,354.00,353.50,13.30,20.203,19.353,35.736,8.3,357.8
35MF20010901,2/9/01 9:56,37.95,-10.17,1011.90,352.70,352.30,10.10,19.995,19.255,35.803,10.0,359.8
35MF20010901,2/9/01 10:01,37.96,-10.17,1011.80,351.20,350.80,10.00,19.942,19.258,35.724,9.6,1.9
35MF20010901,2/9/01 10:06,37.97,-10.17,1011.70,349.20,348.80,9.60,19.932,19.226,35.715,9.7,1.8
35MF20010901,2/9/01 10:11,37.98,-10.17,1011.80,347.90,347.50,8.80,19.925,19.231,35.709,7.2,273.0
35MF20010901,2/9/01 10:16,37.97,-10.17,1011.90,348.10,347.70,11.10,19.888,19.275,35.711,12.6,183.2
35MF20010901,2/9/01 10:30,37.92,-10.18,1011.90,345.70,345.40,14.00,20.138,19.512,35.661,13.3,185.5
35MF20010901,2/9/01 10:35,37.90,-10.18,1012.00,354.30,354.00,10.00,20.225,20.173,35.737,8.5,181.7
35MF20010901,2/9/01 10:45,37.89,-10.18,1012.00,354.30,354.00,4.90,21.182,20.560,35.680,2.1,113.4
35MF20010901,2/9/01 10:50,37.88,-10.18,1012.00,357.10,356.80,5.00,21.202,20.516,35.675,1.2,113.7
35MF20010901,2/9/01 10:55,37.88,-10.17,1012.00,359.70,359.40,5.40,21.163,20.554,35.731,0.7,117.7
35MF20010901,2/9/01 11:00,37.88,-10.17,1012.00,359.70,359.40,5.60,21.298,20.623,35.643,0.3,75.2
35MF20010901,2/9/01 11:06,37.89,-10.17,1012.00,361.70,361.30,5.60,21.325,20.694,35.660,3.3,306.4
35MF20010901,2/9/01 11:11,37.88,-10.18,1012.00,361.90,361.60,4.80,21.332,20.675,35.682,4.3,238.6
35MF20010901,2/9/01 11:16,37.88,-10.18,1012.10,362.20,361.90,3.70,21.394,20.644,35.651,1.1,29.3
35MF20010901,2/9/01 11:21,37.88,-10.18,1012.00,363.80,363.40,4.30,21.354,20.652,35.677,0.8,99.0
35MF20010901,2/9/01 11:26,37.88,-10.18,1012.00,364.60,364.20,4.80,21.273,20.678,35.708,0.5,113.5
35MF20010901,2/9/01 11:40,37.88,-10.18,1011.90,363.60,363.20,5.50,21.334,20.736,35.686,0.5,104.1
35MF20010901,2/9/01 11:45,37.88,-10.18,1012.00,364.40,364.10,5.00,21.359,20.754,35.672,0.5,115.5
35MF20010901,2/9/01 11:50,37.88,-10.18,1011.90,364.50,364.10,4.80,21.408,20.787,35.670,0.3,104.3
35MF20010901,2/9/01 11:56,37.88,-10.18,1011.90,365.40,365.00,5.50,21.412,20.816,35.683,0.1,40.2
35MF20010901,2/9/01 12:01,37.88,-10.18,1011.90,365.60,365.20,4.80,21.432,20.836,35.675,0.1,40.1
35MF20010901,2/9/01 12:06,37.88,-10.18,1011.90,366.10,365.70,4.60,21.433,20.853,35.684,0.1,76.2
35MF20010901,2/9/01 12:11,37.88,-10.18,1011.90,366.40,366.00,4.50,21.454,20.868,35.681,0.1,156.1
35MF20010901,2/9/01 12:16,37.88,-10.18,1011.90,369.00,368.60,5.20,21.468,20.885,35.684,0.1,177.4
35MF20010901,2/9/01 12:21,37.88,-10.18,1011.90,374.80,374.40,4.30,21.512,20.907,35.671,0.1,116.5
35MF20010901,2/9/01 12:26,37.88,-10.18,1012.00,375.20,374.80,4.20,21.525,20.928,35.675,0.0,240.5
35MF20010901,2/9/01 12:32,37.88,-10.18,1011.90,375.30,374.90,4.40,21.526,20.953,35.690,0.1,299.1
35MF20010901,2/9/01 12:37,37.88,-10.18,1011.80,376.50,376.10,4.70,21.535,20.955,35.689,0.0,186.9
35MF20010901,2/9/01 12:51,37.88,-10.17,1011.80,376.80,376.30,5.10,21.383,20.895,35.710,0.5,144.0
35MF20010901,2/9/01 12:56,37.88,-10.17,1011.70,374.70,374.20,4.70,21.551,20.936,35.682,0.1,353.0
35MF20010901,2/9/01 13:01,37.88,-10.17,1011.80,375.90,375.40,4.10,21.661,21.015,35.693,0.2,8.1
35MF20010901,2/9/01 13:06,37.88,-10.17,1011.70,378.80,378.30,4.20,21.663,21.025,35.716,0.1,358.0
35MF20010901,2/9/01 13:11,37.88,-10.17,1011.60,380.90,380.40,4.10,21.675,20.995,35.705,0.3,4.8
35MF20010901,2/9/01 13:16,37.88,-10.17,1011.60,383.10,382.60,4.50,21.684,21.043,35.707,0.1,7.9
35MF20010901,2/9/01 13:21,37.88,-10.17,1011.50,385.30,384.70,4.70,21.677,21.051,35.694,0.1,339.3
35MF20010901,2/9/01 13:27,37.88,-10.17,1011.50,386.00,385.40,5.50,21.669,21.035,35.683,0.1,77.5
35MF20010901,2/9/01 13:32,37.88,-10.17,1011.50,386.80,386.30,4.80,21.638,21.004,35.697,0.1,82.6
35MF20010901,2/9/01 13:37,37.88,-10.17,1011.50,386.10,385.50,4.70,21.657,20.936,35.666,0.1,87.4
35MF20010901,2/9/01 13:42,37.88,-10.17,1011.60,385.60,385.10,2.80,21.695,20.887,35.657,0.1,349.1
35MF20010901,2/9/01 13:47,37.88,-10.17,1011.70,386.20,385.70,2.30,21.637,20.863,35.686,0.5,128.3
35MF20010901,2/9/01 14:01,37.88,-10.17,1011.60,374.30,373.80,2.60,21.378,20.309,35.669,0.8,134.4
35MF20010901,2/9/01 14:06,37.88,-10.17,1011.60,376.30,375.80,2.90,21.344,20.442,35.686,0.7,134.3
35MF20010901,2/9/01 14:11,37.88,-10.17,1011.50,380.10,379.50,2.70,21.405,20.675,35.684,2.0,151.0
35MF20010901,2/9/01 14:16,37.87,-10.16,1011.50,380.20,379.60,2.80,21.530,20.727,35.696,1.6,154.1
35MF20010901,2/9/01 14:22,37.87,-10.16,1011.60,381.80,381.20,2.60,21.652,20.845,35.699,0.8,128.2
35MF20010901,2/9/01 14:27,37.87,-10.16,1011.40,385.10,384.50,2.60,21.706,21.088,35.751,1.8,239.9
35MF20010901,2/9/01 14:32,37.87,-10.16,1011.40,390.20,389.60,2.50,21.692,21.231,35.784,6.4,175.6
35MF20010901,2/9/01 14:37,37.86,-10.16,1011.40,392.20,391.60,2.50,21.932,21.478,35.766,9.5,175.9
35MF20010901,2/9/01 14:42,37.84,-10.16,1011.30,391.00,390.40,2.10,22.093,21.372,35.875,10.8,177.2
35MF20010901,2/9/01 14:47,37.83,-10.16,1011.30,393.80,393.10,2.00,22.001,21.459,36.038,11.3,176.9
35MF20010901,2/9/01 14:52,37.81,-10.16,1011.30,391.30,390.70,2.10,22.064,21.414,36.057,11.4,176.1
35MF20010901,2/9/01 15:37,37.67,-10.15,1010.70,394.50,393.60,2.40,21.910,21.228,35.944,11.3,177.3
35MF20010901,2/9/01 15:42,37.65,-10.15,1010.60,394.30,393.30,2.70,21.887,21.186,35.978,11.2,177.0
35MF20010901,2/9/01 15:47,37.64,-10.15,1010.60,393.80,392.90,2.70,21.812,21.102,35.965,11.2,175.6
35MF20010901,2/9/01 15:53,37.62,-10.15,1010.60,392.30,391.40,2.30,21.800,21.098,35.926,11.3,177.8
35MF20010901,2/9/01 15:58,37.60,-10.15,1010.50,389.80,388.80,2.50,21.801,20.944,35.933,10.5,176.8
35MF20010901,2/9/01 16:03,37.59,-10.14,1010.40,391.80,390.80,2.80,21.651,20.901,35.935,8.5,176.3
35MF20010901,2/9/01 16:08,37.58,-10.14,1010.60,391.20,390.30,4.00,21.654,20.934,35.912,6.6,176.8
35MF20010901,2/9/01 16:13,37.57,-10.14,1010.50,391.20,390.30,3.70,21.646,20.941,35.887,6.5,174.6
35MF20010901,2/9/01 16:18,37.56,-10.14,1010.60,389.60,388.70,3.20,21.802,20.996,35.869,6.3,176.7
35MF20010901,2/9/01 16:23,37.56,-10.14,1010.50,386.30,385.30,2.70,22.163,20.981,35.804,2.7,224.6
35MF20010901,2/9/01 16:29,37.56,-10.15,1010.70,388.90,388.00,3.30,22.119,20.936,35.905,3.1,316.4
35MF20010901,2/9/01 16:34,37.56,-10.15,1010.60,394.10,393.20,4.30,21.829,21.010,36.020,3.5,64.2
35MF20010901,2/9/01 16:48,37.57,-10.14,1010.50,385.40,384.50,3.70,21.600,21.012,35.924,1.3,312.2
35MF20010901,2/9/01 16:53,37.56,-10.14,1010.60,378.30,377.40,3.30,21.779,20.955,35.896,3.2,185.1
35MF20010901,2/9/01 16:58,37.56,-10.14,1010.50,375.90,374.90,3.60,22.019,20.964,35.857,1.5,174.6
35MF20010901,2/9/01 17:03,37.56,-10.14,1010.40,381.10,380.10,3.90,21.655,20.959,36.036,0.5,308.7
35MF20010901,2/9/01 17:08,37.56,-10.14,1010.40,375.40,374.40,3.50,21.793,20.948,35.891,1.3,355.4
35MF20010901,2/9/01 17:14,37.56,-10.14,1010.50,376.40,375.50,3.80,21.738,20.965,35.870,0.4,197.6
35MF20010901,2/9/01 17:19,37.56,-10.14,1010.60,376.60,375.70,3.90,21.642,20.960,35.925,0.4,195.2
35MF20010901,2/9/01 17:24,37.56,-10.14,1010.40,375.50,374.50,3.70,21.637,20.963,35.888,1.3,313.3